This is the latest recevied weather packets stored in our database for station/object K8RLH. If no packets are shown the sender has not sent any weather packets the latest 10 day(s).
| Time | Temp. | Humidity | Pressure | Rain* | Wind** | Luminosity | Snow |
|---|---|---|---|---|---|---|---|
| 1778105732 | 26.11° C | 61% | 1013.5 hPa | 0 mm | - | 48 W/m² | - |
| 1778105430 | 26.11° C | 60% | 1013.1 hPa | 0 mm | - | 79 W/m² | - |
| 1778105126 | 26.67° C | 59% | 1013.1 hPa | 0 mm | - | 65 W/m² | - |
| 1778104822 | 26.67° C | 58% | 1013.7 hPa | 0 mm | - | 72 W/m² | - |
| 1778104519 | 26.67° C | 58% | 1013.5 hPa | 0 mm | - | 73 W/m² | - |
| 1778104214 | 26.67° C | 58% | 1013.4 hPa | 0 mm | - | 112 W/m² | - |
| 1778103912 | 26.67° C | 58% | 1013.7 hPa | 0 mm | - | 78 W/m² | - |
| 1778103609 | 26.67° C | 58% | 1013.5 hPa | 0 mm | - | 93 W/m² | - |
| 1778103307 | 26.67° C | 61% | 1013.8 hPa | 0 mm | - | 90 W/m² | - |
| 1778103004 | 26.67° C | 60% | 1013.7 hPa | 0 mm | - | 149 W/m² | - |
| 1778102700 | 26.67° C | 62% | 1014 hPa | 0 mm | - | 151 W/m² | - |
| 1778102395 | 26.11° C | 61% | 1014.2 hPa | 0 mm | - | 127 W/m² | - |
| 1778102091 | 26.11° C | 62% | 1014.4 hPa | 0 mm | - | 107 W/m² | - |
| 1778101788 | 26.11° C | 62% | 1014.4 hPa | 0 mm | - | 101 W/m² | - |
| 1778101484 | 26.11° C | 60% | 1014.3 hPa | 0 mm | - | 111 W/m² | - |
| 1778101182 | 26.11° C | 59% | 1014.7 hPa | 0 mm | - | 123 W/m² | - |
| 1778100878 | 26.67° C | 58% | 1014.6 hPa | 0 mm | - | 124 W/m² | - |
| 1778100574 | 27.22° C | 58% | 1014.5 hPa | 0 mm | - | 202 W/m² | - |
| 1778100272 | 26.67° C | 59% | 1014.8 hPa | 0 mm | - | 272 W/m² | - |
| 1778099969 | 26.67° C | 59% | 1014.7 hPa | 0 mm | - | 293 W/m² | - |
| 1778099666 | 26.67° C | 60% | 1015 hPa | 0 mm | - | 127 W/m² | - |
| 1778099363 | 26.11° C | 61% | 1014.9 hPa | 0 mm | - | 151 W/m² | - |
| 1778099061 | 26.11° C | 60% | 1015 hPa | 0 mm | - | 89 W/m² | - |
| 1778098757 | 26.11° C | 62% | 1015 hPa | 0 mm | - | 85 W/m² | - |
| 1778098454 | 26.11° C | 60% | 1015.3 hPa | 0 mm | - | 92 W/m² | - |
* Rain latest hour (hover to see other rain measurements)
** Current wind speed in m/s (hover to see current wind gust speed)